Regional Weather Roundup
Issued by NWS Charleston, SC

Current Version | Previous Version | Graphics & Text | Print | Product List | Glossary On
Versions: 1 2 3 4 5 6 7 8 9 10 11 12 13 14 15 16 17 18 19 20 21 22 23 24 25 26 27 28 29 30 31 32 33 34 35 36 37 38 39 40 41 42 43 44 45 46 47 48 49 50
000
ASUS42 KCHS 281212
RWRCHS

REGIONAL WEATHER ROUNDUP
NATIONAL WEATHER SERVICE CHARLESTON SC
800 AM EDT FRI APR 28 2017

NOTE: "FAIR" INDICATES FEW OR NO CLOUDS BELOW 12,000 FEET WITH NO
SIGNIFICANT WEATHER AND/OR OBSTRUCTIONS TO VISIBILITY.

NOT ALL STATIONS ARE QUALITY CONTROLLED. USE DATA WITH CAUTION...
ESPECIALLY DEWPOINT OBSERVATIONS.

SCZ027-030-031-034>040-042>050-281300-
...SOUTHEAST SOUTH CAROLINA...

CITY           SKY/WX    TMP DP  RH WIND       PRES   REMARKS
N CHARLESTON   CLOUDY    73  71  93 S7        30.05R FOG
6HR MIN TEMP:  72; 6HR MAX TEMP:  76;

WATERFRONT PRK   N/A     74  73  96 SW7       30.03R
JOHNS ISLAND   CLOUDY    75  73  94 S8        30.05S FOG
PINOPOLIS        N/A     72  72 100 VRB3      29.95R
MONCKS CORNER  FAIR      70  70 100 S5        30.05R FOG
SUMMERVILLE    CLOUDY    72  72 100 S3        30.05R FOG
BEAUFORT MCAS  CLOUDY    75  74  96 S3        30.04R FOG
6HR MIN TEMP:  73; 6HR MAX TEMP:  76;

BEAUFORT ARPT  CLOUDY    73  72  94 S5        30.04R FOG
HILTON HEAD IS SUNNY     73  73 100 S6        30.05R FOG
WALTERBORO     FOG       72  72 100 S5        30.05R VSB 1
ALLENDALE      FAIR      70  68  94 S3        30.03R

...SOUTHERN MIDLANDS AND PEE DEE...

CITY           SKY/WX    TMP DP  RH WIND       PRES   REMARKS
GEORGETOWN     FAIR      73  73 100 S8        30.07R
KINGSTREE      PTSUNNY  N/A N/A N/A SE5       30.04R HAZE
ORANGEBURG     SUNNY     70  68  93 SW3       30.04R
6HR MIN TEMP:  67; 6HR MAX TEMP:  71;

BARNWELL       FAIR      72  68  88 S3        30.04R
AIKEN          CLOUDY    68  64  88 S6        30.06R
MANNING        FAIR      72  70  94 S10G16    30.04R FOG
COLUMBIA       PTSUNNY   72  65  78 S3        30.02R
6HR MIN TEMP:  69; 6HR MAX TEMP:  73;

SUMTER         MOSUNNY   71  68  89 SW3       30.02R
6HR MIN TEMP:  68; 6HR MAX TEMP:  73;

FLORENCE       PTSUNNY   73  72  96 S7        30.04R
6HR MIN TEMP:  69; 6HR MAX TEMP:  73;

MYRTLE BEACH   CLOUDY    73  72  94 S9        30.07R FOG
N MYRTLE BEACH CLOUDY    73  72  96 S10       30.06R FOG
6HR MIN TEMP:  73; 6HR MAX TEMP:  73;


$$

GAZ063-065-086>088-099>101-113>116-118-119-134>141-150-281300-
...SOUTHEAST GEORGIA...

CITY           SKY/WX    TMP DP  RH WIND       PRES   REMARKS
SAVANNAH ARPT  MOSUNNY   73  70  90 SE3       30.04R FOG
6HR MIN TEMP:  67; 6HR MAX TEMP:  75;

HUNTER AAF     FOG       73  73 100 CALM      30.02R VSB 1/4
6HR MIN TEMP:  68; 6HR MAX TEMP:  75;

FORT STEWART   SUNNY     68  66  94 CALM      30.02R
6HR MIN TEMP:  65; 6HR MAX TEMP:  72;

STATESBORO     SUNNY     69  69 100 CALM      30.04R
SYLVANIA       SUNNY    N/A N/A N/A CALM      30.05R
CLAXTON        FAIR     N/A N/A N/A CALM      30.04R

...CSRA...CENTRAL AND FAR SOUTHEAST GEORGIA...

CITY           SKY/WX    TMP DP  RH WIND       PRES   REMARKS
THOMSON        CLOUDY    69  67  94 SW3       30.07R FOG
AUGUSTA-BUSH   CLOUDY    71  68  90 CALM      30.01R FOG
6HR MIN TEMP:  64; 6HR MAX TEMP:  71;

AUGUSTA-DANIEL CLOUDY    71  65  81 SE3       30.03R
SWAINSBORO     PTSUNNY   70  68  94 S3        30.04R
VIDALIA        SUNNY     70  68  94 CALM      30.04R
EASTMAN        CLOUDY    71  71 100 CALM      30.06R FOG
HAZLEHURST     FOG       70  70 100 S5        30.03R VSB 1/4
ALMA           CLOUDY    70  69  97 CALM      30.04R FOG
6HR MIN TEMP:  65; 6HR MAX TEMP:  71;

WAYCROSS       SUNNY     71  71 100 CALM      30.04R FOG
JESUP          FAIR      68  63  83 CALM      30.05R FOG
BAXLEY         PTSUNNY   68  68 100 CALM      30.04R FOG
BRUNSWICK      SUNNY     72  72 100 CALM      30.04R FOG
SAINT SIMONS   SUNNY     75  73  93 SE6       30.03R FOG
6HR MIN TEMP:  70; 6HR MAX TEMP:  75;


$$

SCZ027-028-034-036>038-045-046-048>050-GAZ119-141-281300-
...LAKE AND SUPPLEMENTAL COASTAL OBSERVATIONS...

STATION/POSITION TIME  TEMP    WIND        PRES    WAVE   SWELL
                       AIR SEA DIR/SP/G            HT/PER HT/PER/DIR
                 (UTC) (F)     (DEG/KT/KT) (MB)    (FT/S) (FT/S/D)
WINYAH BAY       NOT AVBL
LAKE MURRAY      1120   70     210/  4/  5 1015.9R
ACE BASIN NERRS  NOT AVBL
FORT PULASKI     1130   73 75  200/  2/  3 1017.5R
SAPELO ISLAND    1100   71        CALM     1016.0

$$

ANZ835-935-AMZ111-154-330-350-352-354-370-450-454-472-281300-
...C-MAN AND BUOY OBSERVATIONS...

STATION/POSITION TIME  TEMP    WIND        PRES    WAVE   SWELL
                       AIR SEA DIR/SP/G            HT/PER HT/PER/DIR
                 (UTC) (F)     (DEG/KT/KT) (MB)    (FT/S) (FT/S/D)
BUOY 41004       1140   75 74  170/ 10/ 12 1017.6R
BUOY 41008       1050   73 73  160/  8/  8 1015.8    3/ 5   3/130/ 5
FOLLY BEACH CMAN 1100   74     200/  5/  6 1017.7R
CAPERS NEARSHORE 1108   73 73  210/  8/ 12 1017.0R
FRIPP NEARSHORE  1108   73 72  170/  8/ 12 1016.5R


STATION/POSITION TIME  TEMP    WIND        PRES    WAVE   SWELL
                       AIR SEA DIR/SP/G            HT/PER HT/PER/DIR
                 (UTC) (F)     (DEG/KT/KT) (MB)    (FT/S) (FT/S/D)
5E ST. MARYS GA  1130      74                N/A     3/ 5
FRYING PAN BUOY  1140   75 73  180/ 10/ 14 1018.3R
BUOY 41025       1050   77 77  210/ 17/ 21 1018.0    5/ 8   3/140/ 8
CAPE LOOKOUT NC  1100   73     200/  8/ 10 1018.0R
BUOY 41002       1050   75 75  180/ 14/ 16 1020.4    4/ 6   3/ 90/ 8
BUOY 41010       1140   77 78  150/ 14/ 16 1019.0R
ST AUGUSTINE FL  1100   72 75  180/  3/  4 1017.1R


$$




USA.gov is the U.S. government's official web portal to all federal, state and local government web resources and services.